Regional Weather Roundup
Issued by NWS Wakefield, VA

Home | Current Version | Previous Version | Text Only | Print | Product List | Glossary Off
Versions: 1 2 3 4 5 6 7 8 9 10 11 12 13 14 15 16 17 18 19 20 21 22 23 24 25 26 27 28 29 30 31 32 33 34 35 36 37 38 39 40 41 42 43 44 45 46 47 48 49 50

000
ASUS41 KAKQ 270715
RWRAKQ

REGIONAL WEATHER ROUNDUP
NATIONAL WEATHER SERVICE WAKEFIELD VA
300 AM EDT MON MAR 27 2017

Note: "fair" indicates few or no clouds below 12,000 feet with no
significant weather and/or obstructions to visibility. * = Denotes
station may not report precipitation (e.g., rain,snow,etc.),
thunder or fog.

VAZ042-051-052>054-056-270800-
NORTHERN VIRGINIA

CITY           SKY/WX    TMP DP  RH WIND       PRES   REMARKS
WASH NATIONAL    N/A     47  46  97 E6        30.15F FOG
DULLES         DRZL/FOG  45  45 100 SE5       30.13F VSB 1/2
FORT BELVOIR   CLOUDY    46  45  93 CALM      30.14F FOG
QUANTICO       LGT RAIN  48  48 100 NE3       30.15F VSB 1/2
FREDERICKSBRG* LGT RAIN  49  49 100 CALM      30.12F VSB 1/2
STAFFORD*      FOG       47  47 100 CALM      30.17F VSB 1/2
WARRENTON      FOG       48  46  91 CALM      30.12F VSB 1/2
CULPEPER*      FOG       49  49 100 CALM      30.14F VSB 3/4
MANASSAS*      FOG       46  46 100 SE3       30.13F VSB 3/4
LEESBURG*      FOG       46  46 100 SE3       30.14F VSB 1/2
WINCHESTER     DRIZZLE   45  45 100 SE7       30.08F
FRONT ROYAL*   CLOUDY    46  46 100 CALM      30.07F
LURAY*         DRIZZLE   50  50 100 CALM      30.07F
$$

VAZ048-049-060>072-079>083-270800-
CENTRAL AND SOUTH CENTRAL VIRGINIA

CITY           SKY/WX    TMP DP  RH WIND       PRES   REMARKS
RICHMOND       CLOUDY    52  50  93 CALM      30.12F
CHESTERFIELD*  CLOUDY    54  37  54 CALM      30.13F
PETERSBURG*    CLOUDY    49  47  95 CALM      30.13S
HANOVER        CLOUDY    51  48  89 CALM      30.14F
TAPPAHANNOCK*  CLOUDY    51  51 100 CALM      30.15S
QUINTON*       FAIR      51  51 100 CALM      30.13S
CHARLOTTSVILLE LGT RAIN  50  49  96 CALM      30.12F VSB 3/4
GORDONSVILLE*  CLOUDY    49  49 100 CALM      30.12F FOG
ORANGE*        FOG       46  46 100 CALM      30.13F VSB 1/2
LOUISA*        FOG       54  54 100 CALM      30.10F VSB 1/4
BUMPASS*       CLOUDY    51  51 100 CALM      30.12F
FARMVILLE*     CLOUDY    53  53 100 N3        30.10F FOG
CREWE*         CLOUDY    57  57 100 CALM      30.10F
FORT PICKETT*  PTSUNNY   58  53  83 S7        30.11F
CHASE CITY*    PTSUNNY   58  57  95 CALM      30.12S
CLARKSVILLE*   CLOUDY    61  55  82 S5        30.11F
SOUTH HILL*    CLOUDY    58  54  84 S7        30.18R
LAWRENCEVILLE* FAIR      59  53  79 S5        30.12F
EMPORIA*       PTCLDY    57  54  88 SE3       30.14F
$$

VAZ088>098-270800-
SOUTHEAST VIRGINIA

CITY           SKY/WX    TMP DP  RH WIND       PRES   REMARKS
NORFOLK        PTCLDY    58  53  84 S7        30.14F
VIRGINIA BEACH CLOUDY    58  52  80 S7        30.14F
NORFOLK NAVAL  PTCLDY    58  52  80 S7        30.15F
WEST POINT*    CLEAR     53  52  95 SE3       30.15S
SALUDA*        FAIR      49  49 100 SE3       30.13F
NEWPORT NEWS   PTCLDY    58  53  84 S7        30.14F
LANGLEY AFB    PTCLDY    57  54  89 S6        30.13F
FORT EUSTIS    CLEAR     57  52  85 S6        30.11F
WILLIAMSBURG*  CLEAR     55  55 100 CALM      30.14F
HR EXEC AP*    FAIR      55  50  82 S5        30.13F
FRANKLIN*      CLEAR     55  52  88 CALM      30.15S
US460-WAKEFLD  CLEAR     52  50  93 CALM      30.13F
$$

VAZ020-022-025-037-045-270800-
WEST CENTRAL AND SOUTHWEST VIRGINIA

CITY           SKY/WX    TMP DP  RH WIND       PRES   REMARKS
STAUNTON*      CLOUDY    50  48  95 SW6       30.09F
WAYNESBORO*    PTSUNNY   49  49 100 CALM      30.08F
HOT SPRINGS VA RAIN      52  52 100 S15G24    30.10F VSB<1/4
LYNCHBURG      CLOUDY    50  50 100 N6        30.13S FOG
DANVILLE       CLOUDY    56  56 100 CALM      30.11F
SOUTH BOSTON*  CLOUDY    62  56  81 CALM      30.11S
MARTINSVILLE   DRIZZLE   55  54  99 CALM      30.13S
ROANOKE        CLOUDY    54  54 100 SE6       30.12F
BLACKSBURG     CLOUDY    56  55  95 E3        30.13S
DUBLIN*        CLOUDY    60  56  88 S6        30.10F
MARION*        CLOUDY    57  54  88 CALM      30.10F
HILLSVILLE*    CLOUDY    55  55 100 CALM      30.09F
RICHLANDS*     FAIR      57  52  84 SW5       30.07F
WISE*          PTCLDY    55  50  82 S5        30.07F
ABINGDON*      CLOUDY    57  53  86 CALM      30.06F
$$

MDZ021>025-VAZ099-100-270800-
SOUTHERN MARYLAND AND THE DELMARVA PENINSULA

CITY           SKY/WX    TMP DP  RH WIND       PRES   REMARKS
PATUXENT RIVER FOG       47  47 100 E6        30.14F VSB 1/4
BAY BRIDGE APT FOG       45  45 100 E3        30.15F VSB 1/2
LEONARDTOWN    CLOUDY    46  45  93 CALM      30.15F VSB 1/2
DOVER          FOG       45  45 100 E6        30.15F VSB 1/2
GEORGETOWN     FOG       47  46  97 SE6       30.16F VSB 1/4
EASTON         FOG       47  45  95 SE3       30.18F VSB 1/2
CAMBRIDGE      FOG       46  46 100 SE5       30.14F VSB 1/4
SALISBURY      FOG       47  47 100 E3        30.15F VSB 1/4
OCEAN CITY     FOG       46  44  93 E5        30.16F VSB 1/4
WALLOPS ISLAND CLOUDY    44  44 100 CALM      30.16F FOG
ACCOMACK*      CLOUDY    49  48  96 SE6       30.15F
$$

NCZ012>017-030>032-270800-
NORTH CENTRAL AND EASTERN NORTH CAROLINA

CITY           SKY/WX    TMP DP  RH WIND       PRES   REMARKS
ROANOKE RAPIDS FAIR      59  54  82 S5        30.13F
RALEIGH        PTCLDY    63  54  72 S8        30.13S
ELIZABETH CITY NOT AVBL
AHOSKIE*         N/A     56  54  94 CALM      30.14F
EDENTON*       PTCLDY    59  55  86 CALM      30.15F
CURRITUCK*     PTCLDY    54  54 100 CALM      30.16F
KILL DEVIL HLS NOT AVBL
MANTEO         PTCLDY    60  53  78 S8        30.17F
CAPE HATTERAS  CLOUDY    67  54  63 S10       30.17F
TARBORO*       NOT AVBL
GOLDSBORO      CLEAR     58  58 100 SE3       30.13F
WASHINGTON     CLEAR     57  54  90 S5        30.15F
GREENVILLE     CLEAR     55  55 100 CALM      30.16S
NEW BERN       CLEAR     53  53 100 CALM      30.16F
WILMINGTON     CLOUDY    53  53 100 CALM      30.14F
$$

VAZ048-270800-
ELSEWHERE

CITY           SKY/WX    TMP DP  RH WIND       PRES   REMARKS
HARRISBURG PA  DRIZZLE   41  41 100 E7        30.15F FOG
BALTIMORE      FOG       44  44 100 E8        30.14F VSB 1/4
ANNAPOLIS      FOG       46  46 100 E5        30.15F VSB 1/2
ANDREWS AFB    FOG       45  45 100 E5        30.12F VSB 1/2
PHILADELPHIA   CLOUDY    42  41  96 E7        30.18F FOG
HENDERSON NC   CLEAR     58  51  77 S8        30.12S
GREENSBORO     LGT RAIN  61  57  87 SW10      30.11S
ROCKY MOUNT    MOCLDY    58  55  90 SE3       30.14F
$$

VAZ100-270800-
MARINE

STATION/POSITION TIME  TEMP    WIND        PRES    WAVE   SWELL
                       AIR SEA DIR/SP/G            HT/PER HT/PER
                 (UTC) (F)     (DEG/KT/KT) (MB)    (FT/S) (FT/S)
CAPE MAY NJ      0648   45 44   80/  5/  9 1021.2F
LEWES DE         0648   45 45  100/  4/  5 1021.4F
OCEAN-CITY-INLET 0648   45 45   70/  5/  5 1021.8F
WACHAPREAGUE VA  0642   48 55   60/  3/  4 1020.7F
THOMAS POINT MD  0700   45 45   90/  5/  6   N/A
GOOSES REEF MD   0700   46 46  130/  4/  6 1021.3    1
COVE POINT MD    0642   46     170/  5/  6 1021.5F
SOLOMONS ISLAND  0642   46 47   90/  5/  6   N/A
BISHOPS HEAD MD  0648   48 51   90/  4/  5 1021.0F
PINEY POINT MD   0648          140/  6/  6   N/A
POTOMAC MD       0700   46 47  110/  4/  6 1019.8    1
CAMBRIDGE MD     0648   46 47  100/  5/  6 1020.1F
LEWISETTA VA     0642   47 50  110/  7/  8 1020.5F
RAPPAHANNOCK LGT 0648          170/  8/  8 1021.2F
STINGRAY PT      0700   50 48  170/  8/  8 1020.7    1
YORK RVR RNG VA  0648   53     170/ 10/ 11 1019.7F
YORKTOWN VA      0648   53 50  190/  5/  5 1020.1F
JAMESTOWN VA     0700   56 54  110/  4/  6   N/A     0
DOMINION TERM VA 0648   56     130/  4/  5 1020.6F
KIPTOPEKE VA     0648      50  160/ 11/ 11   N/A
CHES BAY BRIDGE  0648   56 49  180/ 11/ 11 1020.6F
CAPE HENRY VA    0648   59     180/  9/ 13   N/A
WILLOUBY STN VA  0648   59     170/ 11/ 11 1021.4F
S CRANEY ISL VA  0648   57     190/  7/  7 1020.6F
CAPE HENRY BUOY  0642      51                N/A     3/ 7
CAPE CHARLES BUO 0621      48                N/A     3/ 7
OFFSHORE WE BUOY 0621      49                N/A     4/ 7   2/18
64NM E OF VA BCH 0650   55 51  170/  8/  8 1021.6F   4/ 7   5/ 7
DUCK PIER NC     0648   59 50  200/  6/  8 1020.9F
44100 DUCK FRF   0605      50                N/A     3/ 7
44056 DUCK FRF   0700      50                N/A     3/ 7
OREGON INLET NC  0642   61 56  150/  5/  7 1021.5F
HATTERAS NC      0648   67 60  170/  7/ 12 1021.2F
DIAMOND SHLS NC  0650   69 76  170/ 14/ 17 1021.7F   3/ 9   3/ 9
CAPE LOOKOUT NC  0600   65     140/ 10/ 10 1021.3F
$$



USA.gov is the U.S. government's official web portal to all federal, state and local government web resources and services.